Contact.

Ici la base.

Implantée sur l’aérodrome de Reims-Prunay, Fly&Fun et ses membres profitent de la région champenoise pour voler dans un cadre exceptionnel et partager cette ferveur commune autour de l’aéronautique.

ouvrir google map

Social Wall.

Vivamus sagittis lacus vel augue laoreet rutrum faucibus dolor auctor. Duis mollis, est non commodo luctu.

Facebook.

Visite de notre ami suisse Lionel pour sa prorogation de qualif, un joli vol dans le ciel champenois😎 ... See MoreSee Less

Visite de notre ami suisse Lionel pour sa prorogation de qualif, un joli vol dans le ciel champenois😎Image attachmentImage attachment

2 months ago

Fly & Fun

Relevez le défi en 2020, rejoignez-nous! Meilleurs vœux 🎉🍾🚀 ... See MoreSee Less

Relevez le défi en 2020, rejoignez-nous! Meilleurs vœux 🎉🍾🚀

 

Comment on Facebook

Très belle année 2020 à toute la team ! Pleins de très beaux vols et de belles sensations !

Une très bonne année à toute l’équipe, et plein de bon vols!

Bonne année la team

Happy new year

😍👍🏼

🥳

Très bonne année à toute l'équipe 🍾

Magnifique bonne annee la team

+ View more comments

Instagram.
METAR :

LFQA 170730Z AUTO 20008KT 180V240 9999 FEW047 BKN054 BKN074 08/05 Q1016


vue en direct sur l'aérodrome
mentions légales politique de confidentialité
Cochet Concept
cx